Regional Weather Roundup
Issued by NWS

Home | Current Version | Previous Version | Text Only | Print | Product List | Glossary On
Versions: 1 2 3 4 5 6 7 8 9 10 11 12 13 14 15 16 17 18 19 20 21 22 23 24 25 26 27 28 29 30 31 32 33 34 35 36 37 38 39 40 41 42 43 44 45 46 47 48 49 50
000
ASUS44 KJAN 031510
RWRMS

MISSISSIPPI HOURLY WEATHER ROUNDUP
NATIONAL WEATHER SERVICE JACKSON MS
1000 AM CDT MON AUG 03 2015

NOTE: "FAIR: INDICATES FEW OR NO CLOUDS BELOW 12,000 FEET WITH NO
SIGNIFICANT WEATHER AND/OR OBSTRUCTIONS TO VISIBILITY.

MSZ001>002-007>008-010>013-018>021-025>028-034>036-031600-
NORTHWEST MISSISSIPPI

CITY           SKY/WX    TMP DP  RH WIND       PRES   REMARKS
CLARKSDALE     FAIR      86  72  62 CALM      29.96S HX  92
CLEVELAND      FAIR      87  74  66 CALM      29.94S HX  96
GREENWOOD      SUNNY     86  70  58 SW3       29.95S HX  90
GREENVILLE     SUNNY     88  70  55 E5        29.94S HX  93
OLIVE BRANCH   MOSUNNY   88  68  51 SW5       29.96S HX  91
OXFORD         FAIR      84  64  51 CALM      29.99R
TUNICA         SUNNY     86  72  62 SE3       29.96S HX  92
$$

MSZ003>006-009-014>017-022>024-029>033-037>039-031600-
NORTHEAST MISSISSIPPI

CITY           SKY/WX    TMP DP  RH WIND       PRES   REMARKS
COLUMBUS AFB   SUNNY     87  63  44 CALM      29.96R
CORINTH        FAIR      84  66  54 CALM      29.96R
GOLDN TRIANGLE SUNNY     86  63  45 CALM      29.96R
STARKVILLE     FAIR      84  64  51 CALM      29.97R
TUPELO         SUNNY     87  62  43 CALM      29.96S
$$

MSZ040-058-031600-
CENTRAL MISSISSIPPI

CITY           SKY/WX    TMP DP  RH WIND       PRES   REMARKS
JACKSON INTL   SUNNY     91  63  39 E6        29.94S HX  92
JACKSON HAWKNS SUNNY     90  63  40 E7        29.95S HX  91
MERIDIAN KEY   SUNNY     88  62  41 VRB3      29.95S
MERIDIAN NAS   MOSUNNY   86  63  45 E3        29.96S
VICKSBURG      SUNNY     88  67  49 E8        29.94R HX  91
$$

MSZ059>079-031600-
SOUTH MISSISSIPPI

CITY           SKY/WX    TMP DP  RH WIND       PRES   REMARKS
BROOKHAVEN     FAIR      88  70  55 NE3       29.96S HX  92
HATTIESBURG    SUNNY     86  69  56 VRB3      29.94S HX  90
MCCOMB         SUNNY     89  70  53 VRB3      29.94R HX  94
NATCHEZ        MOSUNNY   86  70  58 NE3       29.93F HX  90
PINE BELT      SUNNY     88 N/A N/A NE6       29.95F
$$

MSZ080>082-031600-
COASTAL MISSISSIPPI

CITY           SKY/WX    TMP DP  RH WIND       PRES   REMARKS
BAY ST LOUIS   SUNNY     84  70  61 VRB5      29.92S
BILOXI         MOSUNNY   87  71  59 NE7       29.92R HX  93
PASCAGOULA     MOSUNNY   89  70  53 N7        29.92S HX  94
GULFPORT       MOSUNNY   88  70  55 N7        29.91S HX  93
$$



USA.gov is the U.S. government's official web portal to all federal, state and local government web resources and services.